Location: Newark
(22.3091°N, 72.0172°E)
Time: 11:59:34
(UTC+00:00)

X-37B - Visible Passes

Search period start: 15 July 2020 00:00
Search period end: 25 July 2020 00:00
Orbit: 389 x 390 km, 44.9° (Epoch: 18 May)

Date Brightness Start Highest point End Pass type
(mag) Time Alt. Az. Time Alt. Az. Time Alt. Az.
15 Jul ? 23:45:10 18° SW 23:47:24 69° SE 23:50:34 10° NE visible
16 Jul ? 22:49:47 24° ESE 22:49:47 24° ESE 22:51:56 10° ENE visible
17 Jul ? 23:26:38 32° W 23:27:32 41° NW 23:30:34 10° NNE visible
18 Jul ? 22:31:06 23° NE 22:31:06 23° NE 22:32:26 10° NE visible
19 Jul ? 23:07:48 18° NW 23:07:48 18° NW 23:10:02 10° N visible
20 Jul ? 22:12:07 12° NNE 22:12:07 12° NNE 22:12:23 10° NNE visible
